Location: Bovenkerk
(52.2915°N, 4.8336°E)
Time: 08:26:08
(UTC+00:00)

Daily predictions for brighter satellites

Satellite Brightness Start Highest point End
(mag) Time Altitude Azimuth Time Altitude Azimuth Time Altitude Azimuth
STARLINK-1202 3.7 18:55:52 10° WNW 19:00:02 88° SSW 19:04:11 10° ESE
Cosmos 2058 Rocket 3.8 18:56:42 10° SSE 19:00:44 33° E 19:04:45 10° NNE
Cosmos 1461 3.3 18:57:18 10° NW 19:01:48 75° SW 19:06:27 10° SSE
STARLINK-1228 3.7 18:59:22 10° W 19:02:10 39° SSW 19:04:56 10° SE
IRIDIUM 103 4.5 18:57:30 10° N 19:02:46 84° W 19:07:59 10° S
Cosmos 1726 Rocket 3.8 18:59:02 10° S 19:03:18 50° E 19:07:38 10° NNE
SL-08 RB Rocket 3.9 18:59:31 10° SSE 19:04:01 58° ENE 19:08:35 10° N
Cosmos 921 Rocket 3.1 19:00:06 10° NNW 19:04:14 55° ENE 19:08:22 10° SE
Cosmos 1703 3.3 19:00:43 10° N 19:04:43 85° E 19:08:41 10° S
Cosmos 2341 Rocket 4.5 18:59:04 10° N 19:05:10 44° ENE 19:11:13 10° SE
SL-4 R/B 1.9 19:03:31 10° SW 19:06:48 47° SSE 19:10:07 10° E
Cosmos 1437 4.2 19:04:06 10° NNW 19:06:58 38° W 19:09:48 10° SSW
Cosmos 2184 Rocket 4.2 19:00:45 10° NNW 19:07:05 82° W 19:13:18 10° S
ADEOS Rocket 3.8 19:01:26 10° N 19:07:46 59° WNW 19:13:28 10° SW
Cosmos 1726 2.3 19:04:12 10° SSW 19:07:56 81° W 19:11:41 10° N
Cosmos 1825 Rocket 3.9 19:03:39 10° NNW 19:08:02 71° W 19:12:22 10° S
CZ-4C R/B 3.8 19:02:14 10° NW 19:08:06 36° NNE 19:14:58 10° E
Meteor 2-10 4.3 19:04:24 10° SSW 19:09:57 89° WNW 19:15:43 10° NNE
STARLINK-1246 3.6 19:05:49 10° WNW 19:09:58 83° SSW 19:14:08 10° ESE
RESURS DK-1 4.2 19:07:32 10° N 19:10:39 20° NE 19:13:44 10° E
STARLINK-1201 3.5 19:08:04 10° W 19:11:16 51° SSW 19:14:26 10° SE
Cosmos 407 Rocket 3.6 19:06:21 10° S 19:11:18 50° ESE 19:16:16 10° NNE
Cosmos 1328 3.9 19:07:23 10° NNW 19:11:25 85° WSW 19:15:25 10° S
Cosmos 1908 3.3 19:07:53 10° S 19:11:41 58° E 19:15:32 10° NNE
Cosmos 1340 Rocket 3.3 19:08:24 10° SSE 19:12:10 39° E 19:15:56 10° NNE
FREGAT/IRIS 2.6 19:10:01 10° S 19:12:43 71° WSW 19:15:27 10° NNW
Cosmos 2228 3.0 19:09:52 10° S 19:14:10 73° E 19:18:32 10° NNE
STARLINK-1224 3.6 19:10:49 10° WNW 19:14:59 81° SSW 19:19:04 10° ESE
STARLINK-1203 3.7 19:12:57 10° WNW 19:17:10 77° SSW 19:21:13 11° ESE
Cosmos 2058 4.3 19:14:50 10° NNE 19:18:06 22° ENE 19:21:10 11° ESE
Cosmos 1943 3.5 19:12:32 10° SW 19:18:12 77° WNW 19:23:57 10° NNE
STARLINK-1225 3.7 19:15:49 10° WNW 19:19:58 78° SSW 19:23:51 12° ESE
MOS 1 4.5 19:14:29 10° SSE 19:20:08 79° WSW 19:25:52 10° NNW
MetOp-A 4.2 19:15:41 10° SSE 19:20:59 65° ENE 19:26:18 10° N
MOS 1 Rocket 4.3 19:16:24 10° NNE 19:21:21 35° E 19:26:18 10° SSE
Resurs 01 Rocket 2.2 19:18:13 10° SE 19:22:21 40° ENE 19:26:30 10° N
CZ-2C R/B 3.3 19:18:05 10° NNE 19:22:42 32° E 19:27:20 10° SSE
STARLINK-52 4.1 19:20:41 10° SSW 19:23:22 25° SE 19:25:57 11° E
STARLINK-1230 3.7 19:20:46 10° WNW 19:24:56 76° SSW 19:28:37 13° ESE
Nadezhda 1 Rocket 4.0 19:20:15 10° S 19:26:37 76° E 19:32:56 10° NNE
BREEZE M DEB (TANK) 4.2 19:23:59 10° S 19:26:52 21° ESE 19:32:35 10° ENE
Cosmos 1697 Rocket 4.0 19:23:14 10° NNW 19:28:04 28° NE 19:32:44 11° E
SL-8 Rocket 4.4 19:22:38 10° N 19:28:44 47° ENE 19:34:48 10° SE
STARLINK-1243 3.7 19:25:44 10° WNW 19:29:52 73° SSW 19:33:24 14° ESE
SPOT 3 Rocket 3.6 19:24:51 10° SSE 19:30:03 79° ENE 19:35:17 10° NNW
Cosmos 2154 Rocket 4.2 19:23:42 10° NNW 19:30:06 85° W 19:36:26 10° S
SL-24 R/B - RUBIN 2 4.3 19:24:56 10° SSW 19:30:34 63° SE 19:36:54 10° NE
Cosmos 1953 Rocket 4.2 19:26:40 10° NNW 19:31:06 62° W 19:35:31 10° S
ARGOS 3.6 19:26:14 10° S 19:31:35 67° WSW 19:36:57 10° NNW
FALCON 9 DEB 4.0 19:28:33 10° SSW 19:31:41 31° SSE 19:34:33 12° E
Cosmos 1606 Rocket 3.9 19:29:29 10° SSW 19:33:55 71° WNW 19:38:24 10° N
STARLINK-1236 3.7 19:30:44 10° WNW 19:34:51 70° SSW 19:38:11 15° ESE
Cosmos 1954 Rocket 4.3 19:31:40 10° S 19:36:34 42° ESE 19:41:28 10° NE
Cosmos 2181 Rocket 4.5 19:31:19 10° SSE 19:37:00 39° E 19:42:39 10° NNE
USA 186 3.3 19:34:01 10° SSW 19:37:04 37° W 19:39:58 10° NNW
Cosmos 2366 rocket 4.3 19:36:57 10° N 19:42:53 47° ENE 19:48:11 13° SE
Cosmos 1076 Rocket 4.1 19:39:22 10° N 19:43:23 38° ENE 19:46:20 16° SE
Cosmos 1818 4.1 19:38:59 10° SW 19:44:24 65° NW 19:49:52 10° NE
STARLINK-1269 3.8 19:40:41 10° WNW 19:44:48 64° SSW 19:47:44 18° SE
Cosmos 1656 4.2 19:41:42 10° NNW 19:47:14 48° NE 19:51:23 17° ESE
Cosmos 1763 Rocket 3.9 19:42:49 10° NNW 19:47:51 46° ENE 19:51:28 18° SE
SL-16 R/B 4.4 19:45:34 10° NNW 19:48:44 15° NNE 19:51:54 10° NE
STARLINK-1200 3.8 19:45:40 10° WNW 19:49:46 61° SSW 19:52:31 20° SE
SPOT 1/Viking Rocket 4.4 19:50:06 17° ESE 19:53:27 34° ENE 19:58:09 10° N
STARLINK-1192 3.9 19:50:39 10° WNW 19:54:44 59° SSW 19:57:18 21° SE
STARLINK-1233 4.5 19:52:17 10° W 19:54:57 26° SSW 19:56:38 16° SSE
Cosmos 2322 Rocket 4.4 19:52:40 10° NNW 19:55:42 14° NNE 19:58:44 10° NE
SeaSat 1 3.5 19:51:27 10° NNE 19:56:13 49° NW 20:00:57 10° WSW
Cosmos 1455 4.0 19:56:33 16° E 19:56:34 16° E 19:58:56 10° NE
Iridium 4 Rocket 3.6 19:53:02 10° N 19:56:56 36° ENE 19:59:06 21° SE
Cosmos 1980 Rocket 3.6 19:53:29 10° NNW 19:58:13 27° NE 20:02:02 14° E
USA 234 4.2 19:54:03 10° ENE 19:59:05 23° SE 20:04:05 10° S
Cosmos 1174 4.0 19:55:18 10° NW 19:59:18 87° NE 20:02:39 20° SE
STARLINK-1244 3.9 19:55:43 10° WNW 19:59:47 56° SSW 20:02:10 23° SE
Cosmos 1892 3.3 19:56:36 10° N 20:00:19 41° ENE 20:02:13 24° SE
Abrixas rocket 4.0 19:59:04 10° WSW 20:01:09 18° SSW 20:02:07 15° S
STARLINK-1138 4.0 20:00:37 10° WNW 20:04:40 53° SSW 20:06:52 24° SE
Cosmos 1825 3.7 20:01:48 10° NNE 20:04:46 21° ENE 20:05:39 19° E
ATLAS 2AS CENTAUR R/B 4.2 19:58:21 10° NW 20:04:57 34° WSW 20:11:04 10° S
H-2A R/B 3.8 20:00:47 10° SSW 20:05:18 31° W 20:09:46 10° NNW
ATLAS 5 CENTAUR R/B 1.5 20:01:29 10° SW 20:05:43 88° SE 20:10:38 10° NE
COSMOS 2455 3.6 20:02:34 10° NW 20:08:21 48° WSW 20:13:57 11° S
Cosmos-2242 4.3 20:08:41 21° E 20:09:16 22° E 20:12:39 10° NE
STARLINK-1143 4.1 20:05:36 10° WNW 20:09:37 50° SSW 20:11:39 26° SE
ERBS 2.8 20:09:46 10° WNW 20:13:03 50° SW 20:14:20 31° SSE
Cosmos 1140 Rocket 3.7 20:08:12 10° SSW 20:13:24 74° WNW 20:18:35 10° NNE
Cosmos 1356 Rocket 4.5 20:13:45 25° ESE 20:14:20 26° E 20:17:53 10° NE
STARLINK-1241 4.1 20:10:37 10° WNW 20:14:37 47° SSW 20:16:28 27° SSE
STARLINK-29 2.9 20:15:43 10° WSW 20:18:53 58° SSE 20:19:44 40° ESE
STARLINK-1239 4.2 20:15:36 10° WNW 20:19:34 45° SSW 20:21:14 29° SSE
SAR-Lupe-2 3.7 20:16:23 10° NNE 20:19:53 50° E 20:21:14 31° SSE
ATLAS CENTAUR R/B 2.0 20:16:52 10° NW 20:20:40 41° NE 20:22:10 27° E
IGS 5A 3.7 20:20:27 31° SE 20:22:09 52° ENE 20:26:13 10° N
Cosmos 1300 3.0 20:19:50 10° SSW 20:23:38 67° WNW 20:27:27 10° N
USA 32 4.4 20:18:59 10° N 20:24:04 46° ENE 20:26:24 28° SE
STARLINK-1240 4.3 20:20:35 10° W 20:24:31 42° SSW 20:26:01 30° SSE
Spot 2 Rocket 3.4 20:22:14 23° SSE 20:25:33 80° ENE 20:30:41 10° NNW
STARLINK-60 2.9 20:23:22 10° WSW 20:26:40 88° S 20:27:47 38° E
Cosmos 841 Rocket 3.8 20:21:53 10° NNW 20:27:06 54° ENE 20:29:32 30° ESE
In-Cosmos 22 Rocket 4.4 20:22:16 10° NNW 20:28:08 80° W 20:32:45 17° S
Cosmos 1850 Rocket 4.2 20:24:21 15° S 20:28:29 48° ESE 20:33:27 10° NE
STARLINK-1216 4.4 20:25:34 10° W 20:29:27 40° SSW 20:30:47 30° SSE
Cosmos 2278 4.3 20:24:19 10° NNW 20:29:44 43° NE 20:32:29 26° ESE
Terra 2.8 20:29:53 26° E 20:31:25 32° ENE 20:35:39 10° N
Cosmos 2082 Rocket 3.8 20:34:09 16° E 20:34:09 16° E 20:36:26 10° ENE
SPOT 5 3.2 20:31:40 32° ESE 20:32:54 39° ENE 20:36:57 10° N
SL-08 R/B 4.4 20:26:50 10° N 20:32:59 71° ENE 20:36:45 25° SSE
STPSAT 2 (USA 217) 4.4 20:29:28 10° SSW 20:33:57 80° ESE 20:38:28 10° NNE
STARLINK-1237 4.5 20:30:33 10° W 20:34:24 38° SSW 20:35:33 31° S
Meteor 2-10 Rocket 4.0 20:33:52 31° SE 20:35:36 40° E 20:40:42 10° NNE
MetOp-B 4.2 20:32:15 20° S 20:36:01 77° WSW 20:41:25 10° NNW
Cosmos 1833 Rocket 3.5 20:39:02 29° ESE 20:39:07 29° ESE 20:43:53 10° NE
Cosmos 468 Rocket 4.2 20:34:29 10° NNW 20:39:38 66° WSW 20:42:31 26° S
CZ-4B DEB 4.4 20:40:16 58° ESE 20:40:39 64° ENE 20:44:00 10° N
CARTOSAT-1 3.9 20:39:31 38° ESE 20:40:39 48° ENE 20:44:50 10° N
SL-4 R/B 1.4 20:42:48 10° W 20:46:13 82° S 20:46:33 70° ESE
Cosmos 1408 2.5 20:42:41 10° N 20:46:22 74° ENE 20:46:55 60° SE
ERS-1 Rocket 3.0 20:47:01 38° SE 20:48:55 68° ENE 20:53:55 10° N
RESURS DK-1 2.3 20:45:03 10° NW 20:49:14 83° SW 20:50:15 50° SSE
Cosmos 1766 Rocket 3.7 20:47:29 10° N 20:51:56 58° ENE 20:52:50 47° ESE
Cosmos 1570 Rocket 4.0 20:46:58 10° NNW 20:52:21 87° WSW 20:54:32 37° SSE
BREEZE M DEB (TANK) 3.0 20:47:33 10° WSW 20:53:25 49° S 20:53:25 49° S
Okean 3 Rocket 3.5 20:49:03 10° N 20:53:30 71° ENE 20:54:33 49° SE
Cosmos 2058 3.8 20:51:17 10° NNW 20:55:14 45° W 20:57:23 23° SSW
CZ-4C R/B 3.0 20:50:54 10° NW 20:57:44 72° NE 21:01:49 31° ESE
COSMOS 2406 3.2 20:54:52 20° S 20:58:45 61° ESE 21:04:23 10° NE
Resurs 01 Rocket 3.4 20:55:17 11° SSW 20:58:57 28° W 21:02:49 10° NW
STARLINK-52 3.6 20:56:02 10° WSW 20:58:27 47° WSW 20:58:27 47° WSW
CZ-2C R/B 3.6 20:58:15 10° N 21:03:10 46° WNW 21:08:07 10° SW
Cosmos 1812 Rocket 4.2 21:02:25 15° SSW 21:05:51 52° WNW 21:10:07 10° N
Cosmos 2151 2.9 21:02:30 10° NNW 21:06:44 79° W 21:07:34 55° S
FALCON 9 DEB 3.5 21:05:00 10° WSW 21:07:53 58° WSW 21:07:53 58° WSW
Cosmos 1697 Rocket 2.7 21:06:58 10° NNW 21:12:41 81° WSW 21:14:29 46° SSE
Cosmos 2369 3.6 21:07:08 10° NNW 21:12:48 82° WSW 21:14:34 46° SSE
Cosmos 1741 Rocket 4.3 21:21:15 10° SW 21:26:28 69° WNW 21:31:49 10° NNE
Cosmos 1408 Rocket 3.4 21:26:45 10° N 21:31:15 86° E 21:31:22 84° SE
Cosmos 1455 2.7 21:31:25 52° W 21:31:46 54° WNW 21:35:34 10° N
SPOT 1/Viking Rocket 4.3 21:30:43 31° SSW 21:32:46 46° W 21:37:48 10° NNW
Cosmos 540 Rocket 3.8 21:28:11 10° NNW 21:33:15 56° WSW 21:34:20 47° SSW
Cosmos 1743 Rocket 4.0 21:29:33 10° N 21:33:44 52° ENE 21:33:44 52° ENE
SL-16 R/B 3.1 21:29:16 10° NNW 21:34:35 38° NE 21:36:11 31° E
Cosmos 2360 Rocket 3.9 21:30:23 10° NNW 21:34:53 23° NE 21:37:31 17° ENE
Thor Agena Rocket 4.5 21:32:37 10° NNE 21:36:20 32° ENE 21:36:20 32° ENE
Cosmos 1825 3.2 21:36:53 10° NNW 21:40:27 40° W 21:40:28 40° W
Cosmos 2322 Rocket 3.2 21:36:18 10° NNW 21:41:31 36° NE 21:43:04 31° ENE
Cosmos 1980 Rocket 2.1 21:37:15 10° NNW 21:42:54 84° WSW 21:43:48 64° SSE
USA 234 3.1 21:36:28 10° ENE 21:42:59 65° SE 21:49:28 10° SW
Nadezhda 3 Rocket 4.0 21:41:26 38° SSW 21:44:05 80° W 21:50:24 10° N
Cosmos 2221 3.6 21:46:37 35° NE 21:46:37 35° NE 21:49:34 10° NNE
Cosmos 1535 Rocket 4.4 21:39:19 10° N 21:45:32 88° E 21:46:59 56° SSE
Cosmos-2242 3.9 21:45:29 39° WSW 21:46:32 47° WNW 21:50:47 10° N
ASTEX 1 3.2 21:50:00 81° SSE 21:50:15 88° ENE 21:55:14 10° N
ATLAS 5 CENTAUR R/B 3.6 21:46:56 10° W 21:50:59 30° NNW 21:55:35 10° NE
Meteor 2-3 Rocket 3.8 21:48:35 10° NNW 21:54:20 73° W 21:55:21 59° SSW
Cosmos 2333 Rocket 4.4 21:52:37 10° NNW 21:56:30 18° NNE 22:00:23 10° ENE
Cosmos 2084 3.7 21:53:21 10° NW 21:57:21 68° NNW 21:57:21 68° NNW
Cosmos 1633 4.2 21:54:55 10° N 21:56:58 30° NNE 21:56:58 30° NNE
ATLAS CENTAUR R/B 2.9 21:56:02 10° WNW 21:58:21 26° W 21:58:21 26° W
Cosmos 1727 Rocket 4.4 22:05:51 45° E 22:06:01 45° E 22:12:00 10° NNE
Mayak -0.4 22:02:02 10° NNE 22:04:58 44° NNE 22:04:58 44° NNE
Cosmos 1842 Rocket 4.1 22:09:34 55° NNE 22:09:34 55° NNE 22:13:00 10° N
Terra 2.6 22:08:45 40° WSW 22:09:05 41° W 22:13:37 10° NNW
Cosmos 1934 Rocket 4.2 22:03:56 10° NNW 22:10:07 64° W 22:11:27 51° SW
SPOT 5 4.1 22:10:53 27° W 22:11:08 27° W 22:14:53 10° NW
Cosmos 2278 4.3 22:08:36 10° NW 22:13:56 44° WSW 22:14:24 43° WSW
Sich 1 4.0 22:11:47 10° N 22:15:12 40° NE 22:15:12 40° NE
Cosmos 2082 Rocket 2.0 22:15:56 83° S 22:16:07 86° ESE 22:21:51 10° NNE
Cosmos 2100 Rocket 4.3 22:14:01 10° N 22:20:05 51° ENE 22:20:40 49° E
Cosmos 1486 Rocket 4.2 22:22:40 61° NE 22:22:40 61° NE 22:27:09 10° NNE
Cosmos 1833 Rocket 3.1 22:20:38 38° WSW 22:22:42 62° NW 22:28:19 10° NNE
Meteor 2-2 Rocket 4.2 22:24:29 72° E 22:24:29 72° E 22:29:55 10° NNE
Cosmos 968 Rocket 4.1 22:25:39 46° ENE 22:25:39 46° ENE 22:29:36 10° NNE
Cosmos 2173 Rocket 4.3 22:19:54 10° N 22:25:51 51° ENE 22:26:16 50° E
Cosmos 1605 Rocket 4.0 22:22:27 10° NNW 22:28:34 70° W 22:29:21 63° SW
Cosmos 2219 Rocket 4.0 22:27:32 10° NNW 22:32:01 24° NE 22:34:42 17° ENE
Cosmos 2344 4.4 22:25:05 10° NW 22:34:23 68° SW 22:38:35 45° S
ALOS 2 3.5 22:36:50 45° NNE 22:36:50 45° NNE 22:40:09 10° N
NOSS 2-1 (C) 4.1 22:32:05 10° NW 22:36:55 77° NE 22:37:02 77° ENE
NOSS 2-1 (D) 4.1 22:36:19 10° NW 22:41:10 81° NE 22:41:10 81° NE
Cosmos 1805 Rocket 4.3 22:37:08 10° NNW 22:40:32 51° NNW 22:40:32 51° NNW
Cosmos 1346 Rocket 4.3 22:40:11 10° N 22:42:41 36° N 22:42:41 36° N
Cosmos 1340 4.5 22:41:09 10° NNW 22:43:13 31° NNW 22:43:13 31° NNW
CZ-4C R/B 3.5 22:39:35 10° NW 22:46:15 42° WSW 22:47:00 41° SW
Cosmos 2237 4.5 22:45:43 10° NNW 22:51:23 58° NE 22:51:39 57° ENE
Cosmos 1633 Rocket 4.1 22:53:05 10° N 22:56:12 43° N 22:56:12 43° N
Helios 1A 4.2 22:59:02 40° N 22:59:02 40° N 23:01:51 10° N
COSMOS 2428 4.2 22:56:38 10° NNW 23:01:41 31° NE 23:03:37 25° ENE
Cosmos 1607 4.0 23:12:04 64° W 23:12:54 73° NW 23:19:12 10° NE
Thor Agena Rocket 4.3 23:11:53 10° N 23:16:40 43° WNW 23:16:56 42° WNW
Cosmos 1354 Rocket 4.3 23:17:37 65° N 23:17:37 65° N 23:22:07 10° NNE
SL-16 R/B 2.8 23:13:24 10° NW 23:18:02 48° W 23:18:02 48° W
Cosmos 2360 Rocket 2.2 23:14:05 10° NNW 23:19:17 74° N 23:19:17 74° N
Cosmos 2221 4.4 23:23:27 25° WNW 23:23:27 25° WNW 23:26:48 10° N
Cosmos 2322 Rocket 2.8 23:20:20 10° NW 23:24:52 48° WNW 23:24:52 48° WNW
Cosmos 1980 Rocket 4.2 23:22:39 10° WNW 23:25:34 16° W 23:25:34 16° W
USA 234 3.4 23:19:35 10° ENE 23:26:06 70° NNW 23:32:35 10° W
Cosmos 2061 Rocket 3.9 23:24:30 10° NNW 23:30:49 84° W 23:30:49 84° W
Cosmos 1503 Rocket 4.4 23:31:41 57° NW 23:31:41 57° NW 23:36:28 10° NNE
Cosmos 1459 Rocket 4.2 23:29:54 10° NNW 23:36:08 58° W 23:36:11 58° W
ATLAS 5 CENTAUR R/B 4.2 23:33:00 10° NW 23:37:04 25° N 23:41:40 10° ENE
MOS 1-B Rocket 4.1 23:33:42 10° NNE 23:39:59 79° ESE 23:40:21 76° SE
Mayak 1.2 23:38:43 10° NNW 23:41:15 16° WNW 23:41:32 16° WNW
Cosmos 2333 Rocket 2.6 23:36:30 10° NNW 23:42:05 55° NE 23:42:25 54° ENE
Cosmos 2237 Rocket 3.9 23:37:59 10° NNW 23:42:51 28° NE 23:46:25 16° E
Cosmos 2233 Rocket 4.0 23:41:22 10° N 23:47:40 73° ENE 23:47:50 72° E
SME Rocket 4.4 23:43:35 10° NNE 23:46:10 35° NNE 23:46:10 35° NNE
Cosmos 1864 Rocket 4.4 23:41:46 10° NNW 23:48:08 78° W 23:48:09 78° W
Cosmos 1680 Rocket 4.0 23:44:19 10° NNW 23:49:10 56° NE 23:49:10 56° NE
SL-16 R/B 3.9 23:48:43 22° E 23:51:28 32° NE 23:56:50 10° N
